Weather History for Beaufort, SC

Change the Weather History Date:

Friday, February 22, 2013

  Actual Average (KNBC) Record (KNBC)
Temperature  
Mean Temperature 56 °F -  
Max Temperature 62 °F 65 °F 66 °F (2014)
Min Temperature 50 °F 45 °F 48 °F (2014)
Degree Days  
Heating Degree Days 9    
Growing Degree Days 6 (Base 50)    
Moisture  
Dew Point 52 °F    
Average Humidity 88    
Maximum Humidity 100    
Minimum Humidity 67    
Precipitation  
Precipitation 0.00 in - - ()
Sea Level Pressure  
Sea Level Pressure 30.10 in    
Wind  
Wind Speed 9 mph (NE)    
Max Wind Speed 22 mph    
Max Gust Speed 31 mph    
Visibility 7 miles    
Events Rain    
Averages and records for this station are not official NWS values.
T = Trace of Precipitation, MM = Missing Value Source: NWS Daily Summary

Daily Weather History Graph

Daily Weather History Graph

Search for Another Location

Airport:

Trip Planner

Search our weather history database for the weather conditions in past years. The results will help you decide how hot, cold, wet, or windy it might be!

Date:

Astronomy

Feb. 22, 2013 Rise Set
Actual Time 6:57 AM EST 6:14 PM EST
Civil Twilight 6:32 AM EST 6:39 PM EST
Nautical Twilight 6:04 AM EST 7:08 PM EST
Astronomical Twilight 5:35 AM EST 7:36 PM EST
Moon 3:30 PM EST 4:34 AM EST
Length of Visible Light 12h 06m
Length of Day
11h 16m
Waxing Gibbous, 90% of the Moon is Illuminated
Feb 22
Waxing Gibbous
Feb 25
Full
Mar 4
Last Quarter
Mar 11
New
Mar 19
First Quarter

Hourly Weather History & Observations

Time (EST) Temp. Dew Point Humidity Pressure Visibility Wind Dir Wind Speed Gust Speed Precip Events Conditions
12:15 AM 55.4 °F 51.8 °F 88% 30.13 in 10.0 mi ENE 6.9 mph - N/A   Clear
12:35 AM 55.4 °F 51.8 °F 88% 30.13 in 10.0 mi ENE 9.2 mph - N/A   Clear
12:55 AM 55.4 °F 51.8 °F 88% 30.14 in 10.0 mi East 8.1 mph - N/A   Clear
1:15 AM 55.4 °F 51.8 °F 88% 30.13 in 10.0 mi ENE 9.2 mph - N/A   Clear
1:35 AM 55.4 °F 51.8 °F 88% 30.14 in 10.0 mi ENE 11.5 mph - N/A   Mostly Cloudy
1:55 AM 55.4 °F 50.0 °F 82% 30.13 in 10.0 mi ENE 11.5 mph - N/A   Overcast
2:15 AM 55.4 °F 48.2 °F 77% 30.13 in 10.0 mi ENE 10.4 mph 16.1 mph N/A   Overcast
2:35 AM 55.4 °F 46.4 °F 72% 30.13 in 10.0 mi ENE 9.2 mph - N/A   Overcast
2:55 AM 55.4 °F 46.4 °F 72% 30.12 in 10.0 mi ENE 8.1 mph - N/A   Mostly Cloudy
3:15 AM 55.4 °F 44.6 °F 67% 30.12 in 10.0 mi ENE 8.1 mph - N/A   Overcast
3:35 AM 55.4 °F 46.4 °F 72% 30.12 in 10.0 mi NE 9.2 mph - N/A   Overcast
3:55 AM 55.4 °F 44.6 °F 67% 30.11 in 10.0 mi NE 9.2 mph - N/A   Overcast
4:15 AM 55.4 °F 44.6 °F 67% 30.11 in 10.0 mi NE 11.5 mph - N/A   Overcast
4:35 AM 55.4 °F 44.6 °F 67% 30.11 in 10.0 mi ENE 10.4 mph - N/A   Overcast
4:55 AM 55.4 °F 44.6 °F 67% 30.11 in 10.0 mi ENE 9.2 mph - N/A   Overcast
5:15 AM 55.4 °F 44.6 °F 67% 30.11 in 10.0 mi ENE 12.7 mph - N/A   Overcast
5:35 AM 55.4 °F 44.6 °F 67% 30.12 in 10.0 mi NE 12.7 mph - N/A   Overcast
5:55 AM 55.4 °F 46.4 °F 72% 30.12 in 10.0 mi NE 12.7 mph - N/A   Overcast
6:15 AM 53.6 °F 46.4 °F 77% 30.14 in 10.0 mi NE 13.8 mph - N/A   Overcast
6:35 AM 53.6 °F 46.4 °F 77% 30.14 in 10.0 mi NE 11.5 mph - N/A   Overcast
6:55 AM 55.4 °F 46.4 °F 72% 30.14 in 10.0 mi NE 11.5 mph - N/A Rain Light Rain
7:15 AM 53.6 °F 46.4 °F 77% 30.15 in 10.0 mi ENE 12.7 mph - N/A Rain Light Rain
7:35 AM 53.6 °F 46.4 °F 77% 30.14 in 10.0 mi ENE 17.3 mph 21.9 mph N/A Rain Rain
7:55 AM 53.6 °F 46.4 °F 77% 30.14 in 10.0 mi ENE 19.6 mph 26.5 mph N/A   Overcast
8:15 AM 53.6 °F 46.4 °F 77% 30.16 in 10.0 mi ENE 15.0 mph 29.9 mph N/A   Overcast
8:35 AM 53.6 °F 46.4 °F 77% 30.16 in 10.0 mi ENE 21.9 mph 28.8 mph N/A   Overcast
8:55 AM 53.6 °F 46.4 °F 77% 30.16 in 10.0 mi ENE 17.3 mph 25.3 mph N/A   Overcast
9:15 AM 53.6 °F 46.4 °F 77% 30.16 in 10.0 mi East 21.9 mph 27.6 mph N/A   Overcast
9:35 AM 53.6 °F 46.4 °F 77% 30.15 in 10.0 mi ENE 17.3 mph 31.1 mph N/A   Overcast
9:55 AM 53.6 °F 48.2 °F 82% 30.16 in 7.0 mi ENE 17.3 mph 23.0 mph N/A   Overcast
10:15 AM 53.6 °F 48.2 °F 82% 30.16 in 7.0 mi ENE 17.3 mph 25.3 mph N/A   Overcast
10:35 AM 55.4 °F 50.0 °F 82% 30.17 in 10.0 mi ENE 15.0 mph 23.0 mph N/A   Overcast
10:55 AM 53.6 °F 50.0 °F 88% 30.16 in 5.0 mi ENE 13.8 mph - N/A Rain Rain
11:15 AM 53.6 °F 51.8 °F 94% 30.15 in 5.0 mi ENE 12.7 mph - N/A Rain Light Rain
11:35 AM 55.4 °F 53.6 °F 94% 30.15 in 10.0 mi NE 11.5 mph - N/A   Overcast
11:55 AM 53.6 °F 53.6 °F 100% 30.15 in 5.0 mi NE 5.8 mph - N/A   Drizzle
12:15 PM 53.6 °F 53.6 °F 100% 30.16 in 5.0 mi NE 13.8 mph - N/A Rain Rain
12:35 PM 53.6 °F 53.6 °F 100% 30.15 in 5.0 mi NE 10.4 mph - N/A Rain Rain
12:55 PM 55.4 °F 53.6 °F 94% 30.11 in 5.0 mi East 10.4 mph - N/A Rain Rain
1:15 PM 55.4 °F 55.4 °F 100% 30.09 in 7.0 mi East 5.8 mph - N/A Rain Light Rain
1:35 PM 57.2 °F 55.4 °F 94% 30.06 in 10.0 mi East 6.9 mph - N/A   Overcast
1:55 PM 59.0 °F 59.0 °F 100% 30.07 in 10.0 mi Calm Calm - N/A   Overcast
2:15 PM 60.8 °F 59.0 °F 94% 30.06 in 10.0 mi East 4.6 mph - N/A   Overcast
2:35 PM 60.8 °F 60.8 °F 100% 30.06 in 10.0 mi ESE 3.5 mph - N/A   Mostly Cloudy
2:55 PM 62.6 °F 60.8 °F 94% 30.06 in 10.0 mi ESE 3.5 mph - N/A   Overcast
3:15 PM 62.6 °F 60.8 °F 94% 30.06 in 10.0 mi East 3.5 mph - N/A   Overcast
3:35 PM 62.6 °F 60.8 °F 94% 30.06 in 10.0 mi ENE 4.6 mph - N/A   Overcast
3:55 PM 60.8 °F 59.0 °F 94% 30.06 in 7.0 mi NNE 5.8 mph - N/A   Overcast
4:15 PM 60.8 °F 59.0 °F 94% 30.06 in 10.0 mi Calm Calm - N/A   Overcast
4:35 PM 60.8 °F 59.0 °F 94% 30.06 in 7.0 mi Calm Calm - N/A   Overcast
4:55 PM 60.8 °F 59.0 °F 94% 30.04 in 7.0 mi NNE 3.5 mph - N/A   Overcast
5:15 PM 60.8 °F 60.8 °F 100% 30.06 in 7.0 mi Calm Calm - N/A   Overcast
5:35 PM 60.8 °F 60.8 °F 100% 30.05 in 7.0 mi NE 3.5 mph - N/A   Overcast
5:55 PM 60.8 °F 59.0 °F 94% 30.05 in 7.0 mi Calm Calm - N/A   Overcast
6:15 PM 60.8 °F 60.8 °F 100% 30.05 in 5.0 mi Calm Calm - N/A   Overcast
6:35 PM 60.8 °F 59.0 °F 94% 30.05 in 2.0 mi North 3.5 mph - N/A   Overcast
6:55 PM 59.0 °F 59.0 °F 100% 30.06 in 2.0 mi Calm Calm - N/A   Overcast
7:15 PM 59.0 °F 59.0 °F 100% 30.05 in 1.5 mi NNE 3.5 mph - N/A   Overcast
7:35 PM 59.0 °F 57.2 °F 94% 30.06 in 0.8 mi East 3.5 mph - N/A   Overcast
7:55 PM 57.2 °F 55.4 °F 94% 30.06 in 1.0 mi Calm Calm - N/A   Overcast
8:15 PM 55.4 °F 55.4 °F 100% 30.07 in 1.0 mi Calm Calm - N/A   Overcast
8:35 PM 55.4 °F 55.4 °F 100% 30.07 in 1.0 mi NE 4.6 mph - N/A   Overcast
8:55 PM 53.6 °F 53.6 °F 100% 30.08 in 1.8 mi Calm Calm - N/A   Overcast
9:15 PM 53.6 °F 53.6 °F 100% 30.07 in 1.2 mi Calm Calm - N/A   Overcast
9:35 PM 53.6 °F 51.8 °F 94% 30.07 in 0.8 mi NNE 5.8 mph - N/A   Overcast
9:55 PM 51.8 °F 51.8 °F 100% 30.08 in 1.2 mi NNW 5.8 mph - N/A Rain Light Rain
10:15 PM 51.8 °F 51.8 °F 100% 30.08 in 1.0 mi North 4.6 mph - N/A   Drizzle
10:35 PM 51.8 °F 50.0 °F 94% 30.08 in 2.0 mi North 6.9 mph - N/A Rain Light Rain
10:55 PM 50.0 °F 50.0 °F 100% 30.08 in 3.0 mi North 5.8 mph - N/A Rain Rain
11:15 PM 50.0 °F 50.0 °F 100% 30.07 in 4.0 mi North 5.8 mph - N/A Rain Light Rain
11:35 PM 50.0 °F 50.0 °F 100% 30.05 in 5.0 mi NNE 5.8 mph - N/A Rain Light Rain
11:55 PM 50.0 °F 50.0 °F 100% 30.04 in 5.0 mi NNE 8.1 mph - N/A Rain Light Rain